Hourly Weather Rusocice

Today, 13 April, Tuesday

Time Temperature Precipitation Wind Pressure Humidity
00:00 +2°C° 2.2 mm 3 mps 747 mmHg 95%
01:00 +1°C° 2.2 mm 3 mps 747 mmHg 99%
02:00 +1°C° 1.3 mm 3 mps 747 mmHg 99%
03:00 0°C° 1.3 mm 3 mps 748 mmHg 99%
04:00 0°C° 1.3 mm 3 mps 748 mmHg 98%
05:00 0°C° 0.6 mm 3 mps 748 mmHg 98%
06:00 0°C° 0.6 mm 3 mps 748 mmHg 98%
07:00 0°C° 0.6 mm 3 mps 749 mmHg 98%
08:00 0°C° 0.5 mm 3 mps 749 mmHg 98%
09:00 0°C° 0.5 mm 3 mps 749 mmHg 97%
10:00 +1°C° 0.5 mm 3 mps 749 mmHg 97%
11:00 +1°C° 0.5 mm 3 mps 749 mmHg 97%
12:00 +1°C° 0.5 mm 3 mps 749 mmHg 97%
13:00 +2°C° 0.5 mm 3 mps 749 mmHg 97%
14:00 +3°C° 0.4 mm 2 mps 748 mmHg 97%
15:00 +3°C° 0.4 mm 2 mps 748 mmHg 96%
16:00 +3°C° 0.4 mm 2 mps 748 mmHg 96%
17:00 +3°C° 0.4 mm 2 mps 748 mmHg 96%
18:00 +3°C° 0.4 mm 2 mps 748 mmHg 97%
19:00 +3°C° 0.4 mm 2 mps 747 mmHg 97%
20:00 +3°C° 0.4 mm 2 mps 747 mmHg 95%
21:00 +3°C° 0.4 mm 2 mps 747 mmHg 93%
22:00 +3°C° 0.4 mm 2 mps 747 mmHg 91%
23:00 +3°C° 0.2 mm 2 mps 747 mmHg 90%

Tomorrow, 14 April, Wednesday

Time Temperature Precipitation Wind Pressure Humidity
00:00 +2°C° 0.2 mm 2 mps 747 mmHg 89%
01:00 +2°C° 0.2 mm 2 mps 747 mmHg 88%
02:00 +2°C° 0.2 mm 2 mps 747 mmHg 89%
03:00 +2°C° 0.2 mm 2 mps 746 mmHg 90%
04:00 +2°C° 0.2 mm 2 mps 746 mmHg 91%
05:00 +2°C° 0.5 mm 2 mps 747 mmHg 93%
06:00 +2°C° 0.5 mm 2 mps 747 mmHg 95%
07:00 +2°C° 0.5 mm 2 mps 747 mmHg 97%
08:00 +1°C° 0.4 mm 3 mps 747 mmHg 92%
09:00 +2°C° 0.4 mm 3 mps 747 mmHg 88%
10:00 +1°C° 0.4 mm 4 mps 747 mmHg 83%
11:00 +1°C° 0.5 mm 4 mps 747 mmHg 86%
12:00 +1°C° 0.5 mm 4 mps 747 mmHg 88%
13:00 +2°C° 0.5 mm 3 mps 746 mmHg 90%
14:00 +2°C° 0.4 mm 3 mps 746 mmHg 88%
15:00 +2°C° 0.4 mm 3 mps 746 mmHg 86%
16:00 +3°C° 0.4 mm 3 mps 746 mmHg 83%
17:00 +2°C° 0.4 mm 3 mps 746 mmHg 87%
18:00 +2°C° 0.4 mm 3 mps 746 mmHg 92%
19:00 +2°C° 0.4 mm 2 mps 746 mmHg 96%
20:00 +2°C° 0.2 mm 2 mps 746 mmHg 95%
21:00 +2°C° 0.2 mm 2 mps 746 mmHg 94%
22:00 +2°C° 0.2 mm 2 mps 746 mmHg 93%
23:00 +2°C° 0.4 mm 2 mps 746 mmHg 94%

Day after tomorrow, 15 April, Thursday

Time Temperature Precipitation Wind Pressure Humidity
00:00 +1°C° 0.4 mm 3 mps 745 mmHg 96%
01:00 +1°C° 0.4 mm 3 mps 745 mmHg 98%
02:00 0°C° 0.4 mm 3 mps 745 mmHg 98%
03:00 0°C° 0.4 mm 3 mps 745 mmHg 98%
04:00 -1°C° 0.4 mm 4 mps 745 mmHg 97%
05:00 -1°C° 0.6 mm 4 mps 745 mmHg 98%
06:00 -1°C° 0.6 mm 4 mps 745 mmHg 98%
07:00 -1°C° 0.6 mm 4 mps 745 mmHg 98%
08:00 -1°C° 0.6 mm 4 mps 745 mmHg 98%
09:00 0°C° 0.6 mm 4 mps 745 mmHg 98%
10:00 0°C° 0.6 mm 4 mps 745 mmHg 98%
11:00 0°C° 0.5 mm 4 mps 745 mmHg 98%
12:00 0°C° 0.5 mm 4 mps 745 mmHg 98%
13:00 0°C° 0.5 mm 4 mps 745 mmHg 99%
14:00 0°C° 0.4 mm 4 mps 745 mmHg 98%
15:00 0°C° 0.4 mm 4 mps 745 mmHg 98%
16:00 0°C° 0.4 mm 4 mps 745 mmHg 98%
17:00 0°C° 0.3 mm 4 mps 745 mmHg 98%
18:00 +1°C° 0.3 mm 3 mps 745 mmHg 98%
19:00 +1°C° 0.3 mm 3 mps 745 mmHg 98%
20:00 +1°C° 0.2 mm 3 mps 745 mmHg 98%
21:00 +1°C° 0.2 mm 3 mps 745 mmHg 98%
22:00 +1°C° 0.2 mm 3 mps 745 mmHg 98%
23:00 0°C° 0.1 mm 3 mps 745 mmHg 97%

16 April, Friday

Time Temperature Precipitation Wind Pressure Humidity
00:00 0°C° 0.1 mm 3 mps 744 mmHg 97%
01:00 0°C° 0.1 mm 3 mps 744 mmHg 97%
02:00 0°C° 0.1 mm 3 mps 744 mmHg 97%
03:00 0°C° 0.1 mm 3 mps 744 mmHg 97%
04:00 0°C° 0.1 mm 3 mps 744 mmHg 98%
05:00 0°C° 0 mm 3 mps 744 mmHg 98%
06:00 0°C° 0 mm 3 mps 744 mmHg 98%
07:00 0°C° 0 mm 3 mps 744 mmHg 98%
08:00 +1°C° 0 mm 3 mps 745 mmHg 98%
09:00 +1°C° 0 mm 3 mps 745 mmHg 98%
10:00 +1°C° 0 mm 3 mps 745 mmHg 98%
11:00 +1°C° 0 mm 3 mps 745 mmHg 98%
12:00 +1°C° 0 mm 3 mps 745 mmHg 98%
13:00 +1°C° 0 mm 3 mps 745 mmHg 98%
14:00 +1°C° 0.1 mm 3 mps 745 mmHg 98%
15:00 +1°C° 0.1 mm 3 mps 745 mmHg 98%
16:00 +1°C° 0.1 mm 3 mps 746 mmHg 98%
17:00 +2°C° 0 mm 2 mps 746 mmHg 98%
18:00 +2°C° 0 mm 2 mps 746 mmHg 98%
19:00 +2°C° 0 mm 2 mps 746 mmHg 98%
20:00 +2°C° 0.1 mm 2 mps 746 mmHg 98%
21:00 +2°C° 0.1 mm 2 mps 746 mmHg 98%
22:00 +2°C° 0.1 mm 2 mps 746 mmHg 98%
23:00 +2°C° 0 mm 2 mps 746 mmHg 98%

17 April, Saturday

Time Temperature Precipitation Wind Pressure Humidity
00:00 +2°C° 0 mm 2 mps 746 mmHg 98%
01:00 +2°C° 0 mm 2 mps 746 mmHg 98%
02:00 +2°C° 0.2 mm 2 mps 746 mmHg 98%
03:00 +2°C° 0.2 mm 2 mps 746 mmHg 98%
04:00 +2°C° 0.2 mm 2 mps 746 mmHg 98%
05:00 +2°C° 0.2 mm 2 mps 746 mmHg 98%
06:00 +2°C° 0.2 mm 2 mps 746 mmHg 98%
07:00 +2°C° 0.2 mm 2 mps 746 mmHg 98%
08:00 +3°C° 0.1 mm 2 mps 746 mmHg 99%
09:00 +3°C° 0.1 mm 2 mps 746 mmHg 99%
10:00 +4°C° 0.1 mm 1 mps 746 mmHg 99%
11:00 +4°C° 0 mm 1 mps 746 mmHg 98%
12:00 +4°C° 0 mm 1 mps 746 mmHg 98%
13:00 +5°C° 0 mm 1 mps 746 mmHg 98%
14:00 +5°C° 0 mm 1 mps 746 mmHg 97%
15:00 +5°C° 0 mm 1 mps 746 mmHg 96%
16:00 +5°C° 0 mm 1 mps 746 mmHg 95%
17:00 +5°C° 0 mm 1 mps 746 mmHg 96%
18:00 +3°C° 0 mm 0 mps 747 mmHg 97%
19:00 +3°C° 0 mm 0 mps 747 mmHg 97%
20:00 +3°C° 0 mm 0 mps 747 mmHg 97%
21:00 +4°C° 0 mm 1 mps 747 mmHg 97%
22:00 +3°C° 0 mm 1 mps 747 mmHg 97%
23:00 +4°C° 0 mm 1 mps 746 mmHg 97%

18 April, Sunday

Time Temperature Precipitation Wind Pressure Humidity
00:00 +3°C° 0 mm 0 mps 746 mmHg 97%
01:00 +3°C° 0 mm 0 mps 746 mmHg 97%
02:00 +3°C° 0 mm 0 mps 746 mmHg 97%
03:00 +4°C° 0 mm 1 mps 746 mmHg 98%
04:00 +4°C° 0 mm 1 mps 746 mmHg 98%
05:00 +4°C° 0 mm 1 mps 746 mmHg 96%
06:00 +4°C° 0 mm 2 mps 746 mmHg 95%
07:00 +4°C° 0 mm 2 mps 746 mmHg 93%
08:00 +4°C° 0 mm 2 mps 747 mmHg 91%
09:00 +5°C° 0 mm 2 mps 747 mmHg 89%
10:00 +5°C° 0 mm 3 mps 747 mmHg 87%
11:00 +5°C° 0 mm 3 mps 747 mmHg 86%
12:00 +5°C° 0 mm 3 mps 746 mmHg 84%
13:00 +7°C° 0 mm 3 mps 746 mmHg 82%
14:00 +7°C° 0 mm 3 mps 746 mmHg 81%
15:00 +8°C° 0 mm 2 mps 746 mmHg 80%
16:00 +8°C° 0 mm 2 mps 746 mmHg 79%
17:00 +7°C° 0 mm 2 mps 746 mmHg 83%
18:00 +6°C° 0 mm 2 mps 746 mmHg 88%
19:00 +5°C° 0 mm 1 mps 747 mmHg 92%
20:00 +5°C° 0 mm 1 mps 747 mmHg 94%
21:00 +4°C° 0 mm 1 mps 747 mmHg 95%
22:00 +4°C° 0 mm 1 mps 747 mmHg 96%
23:00 +4°C° 0 mm 1 mps 747 mmHg 96%
Show more